This is the latest recevied weather packets stored in our database for station/object 9M2EVR-2. If no packets are shown the sender has not sent any weather packets the latest 10 day(s).
| Time | Temp. | Humidity | Pressure | Rain* | Wind** | Luminosity | Snow |
|---|---|---|---|---|---|---|---|
| 1777717236 | 42.78° C | 40% | 1003.5 hPa | - | - | - | - |
| 1777716335 | 42.78° C | 40% | 1003.1 hPa | - | - | - | - |
| 1777715434 | 42.78° C | 40% | 1003 hPa | - | - | - | - |
| 1777714533 | 43.89° C | 38% | 1002.8 hPa | - | - | - | - |
| 1777713632 | 43.89° C | 37% | 1002.4 hPa | - | - | - | - |
| 1777712731 | 44.44° C | 36% | 1002.5 hPa | - | - | - | - |
| 1777711830 | 44.44° C | 36% | 1002.6 hPa | - | - | - | - |
| 1777710930 | 45° C | 37% | 1002.7 hPa | - | - | - | - |
| 1777710029 | 44.44° C | 37% | 1002.8 hPa | - | - | - | - |
| 1777709128 | 45° C | 36% | 1003 hPa | - | - | - | - |
| 1777708227 | 45° C | 36% | 1003.2 hPa | - | - | - | - |
| 1777707326 | 45.56° C | 33% | 1003.2 hPa | - | - | - | - |
| 1777706426 | 45° C | 33% | 1003.8 hPa | - | - | - | - |
| 1777705525 | 45.56° C | 33% | 1003.9 hPa | - | - | - | - |
| 1777704624 | 45.56° C | 32% | 1004.2 hPa | - | - | - | - |
| 1777703723 | 46.67° C | 32% | 1004.5 hPa | - | - | - | - |
| 1777702822 | 47.22° C | 31% | 1004.7 hPa | - | - | - | - |
| 1777701922 | 47.22° C | 30% | 1004.9 hPa | - | - | - | - |
| 1777701021 | 47.78° C | 31% | 1005.5 hPa | - | - | - | - |
| 1777700120 | 48.89° C | 28% | 1005.8 hPa | - | - | - | - |
| 1777699219 | 48.89° C | 30% | 1006 hPa | - | - | - | - |
| 1777698318 | 49.44° C | 30% | 1006.4 hPa | - | - | - | - |
| 1777697418 | 50° C | 30% | 1006.9 hPa | - | - | - | - |
| 1777696517 | 49.44° C | 29% | 1007.2 hPa | - | - | - | - |
| 1777695616 | 49.44° C | 31% | 1007.5 hPa | - | - | - | - |
* Rain since midnight (hover to see other rain measurements)
** Current wind speed in m/s (hover to see current wind gust speed)